Location: Unspecified
(0.0000°N, 0.0000°E)
Time: 03:18:21
(UTC+00:00)

TBA - TO BE ASSIGNED - Pass Details

Date: 25 April 2026
Orbit: 482 x 484 km, 43.0° (Epoch: 11 May)

Event Time Altitude Azimuth Distance (km) Brightness Sun altitude
Rises 19:21:19 0° 339° (NNW) 2,518 ? -20.3°
Reaches altitude 10° 19:23:56 10° 357° (N) 1,642 ? -20.9°
Enters shadow 19:25:25 17° 18° (NNE) 1,291 ? -21.2°
